Location: 22
(39.7117°N, 89.5929°W)
Time: 07:48:08
(UTC-05:00)

ISS - Pass Details

Date: 02 October 2021
Orbit: 417 x 423 km, 51.6° (Epoch: 16 October)

Event Time Altitude Azimuth Distance (km) Brightness Sun altitude
Rises 20:15:54 0° 310° (NW) 2,364 1.1 -19.5°
Reaches altitude 10° 20:18:02 10° 315° (NW) 1,498 -0.2 -19.9°
Enters shadow 20:20:58 50° 6° (N) 538 -3.3 -20.4°
